Flag for Germany Weather past 2 weeks in Hamburg, Hamburg, Germany

Now
41 °F

Light rain. Partly cloudy.


Feels Like: 34 °F
Forecast: 37 / 42 °F
Wind: 12 mph from West

Location: Hamburg-Fuhlsbuettel

Current Time: Jan 26, 2015 at 7:27:45 PM

Latest Report: Jan 26, 2015 at 6:50 PM


Visibility: 4 mi

Pressure: 29.86 "Hg

Humidity: 100%

Dew point: 41 °F

Location of HamburgLocation

Historic Weather in Hamburg — Graph

°F

Hamburg temperature yesterday

Maximum temperature yesterday: 37 °F (at 11:20 AM)
Minimum temperature yesterday: 28 °F (at 8:20 AM)
Average temperature yesterday: 35 °F

Past Weeks' High & Low Weather Summary

 TemperatureHumidityPressure
High50 °F (Jan 15, 8:20 PM)100% (Jan 12, 10:50 PM)30.30 "Hg (Jan 12, 10:50 PM)
Low25 °F (Jan 21, 5:50 AM)70% (Jan 17, 12:50 PM)29.33 "Hg (Jan 15, 6:50 PM)
Average36 °F91%29.89 "Hg
* Reported Jan 11 6:20 PM — Jan 26 6:20 PM, Hamburg, Weather by CustomWeather, © 2014

Note: Actual official high and low records may vary slightly from our data, if they occured in-between our weather recording intervals... More about our weather records

Advertising

Hamburg weather history for previous 24 hours

 ConditionsComfort  
Time TempWeatherWind HumidityBarometerVisibility
6:20 PM
Jan 26
41 °FLight rain. Passing clouds.12 mph100%29.83 "Hg4 mi
5:50 PM39 °FLight rain. Passing clouds.10 mph100%29.86 "Hg4 mi
5:20 PM39 °FDrizzle. Fog.12 mph100%29.86 "Hg3 mi
4:50 PM39 °FLight rain. Fog.13 mph100%29.86 "Hg3 mi
4:20 PM39 °FLight rain. Partly sunny.14 mph100%29.86 "Hg4 mi
3:50 PM39 °FDrizzle. Fog.14 mph100%29.86 "Hg2 mi
3:20 PM39 °FDrizzle. Partly sunny.14 mph100%29.89 "Hg4 mi
2:50 PM39 °FDrizzle. Fog.15 mph93%29.89 "Hg3 mi
2:20 PM39 °FDrizzle. Fog.16 mph93%29.92 "Hg2 mi
1:50 PM39 °FDrizzle. Fog.15 mph93%29.92 "Hg2 mi
1:20 PM39 °FDrizzle. Fog.17 mph93%29.95 "Hg3 mi
12:50 PM39 °FLight rain. Partly sunny.16 mph93%29.95 "Hg4 mi
12:20 PM39 °FLight rain. Partly sunny.16 mph93%29.98 "Hg4 mi
11:50 AM39 °FDrizzle. Fog.12 mph93%30.01 "Hg3 mi
11:20 AM39 °FDrizzle. Fog.12 mph93%30.01 "Hg3 mi
10:50 AM37 °FDrizzle. Fog.12 mph100%30.04 "Hg2 mi
10:20 AM37 °FDrizzle. Partly sunny.12 mph100%30.04 "Hg4 mi
9:50 AM37 °FDrizzle. Fog.12 mph100%30.07 "Hg3 mi
9:20 AM37 °FDrizzle. Fog.12 mph100%30.07 "Hg2 mi
8:50 AM37 °FDrizzle. Fog.10 mph100%30.09 "Hg2 mi
8:20 AM37 °FDrizzle. Fog.12 mph100%30.09 "Hg2 mi
7:50 AM37 °FDrizzle. Fog.10 mph93%30.09 "Hg2 mi
7:20 AM37 °FFog.10 mph93%30.12 "Hg3 mi
6:50 AM37 °FFog.9 mph93%30.12 "Hg3 mi
6:20 AM37 °FFog.9 mph93%30.12 "Hg3 mi
5:50 AM36 °FFog.9 mph100%30.12 "Hg3 mi
5:20 AM37 °FFog.12 mph100%30.15 "Hg2 mi
4:20 AM37 °FFog.9 mph100%30.15 "Hg2 mi
3:50 AM36 °FFog.10 mph100%30.18 "Hg2 mi
3:20 AM37 °FFog.9 mph100%30.18 "Hg2 mi
2:50 AM37 °FFog.8 mph100%30.21 "Hg2 mi
2:20 AM37 °FFog.9 mph100%30.21 "Hg2 mi
1:50 AM37 °FFog.8 mph100%30.21 "Hg1 mi
1:20 AM37 °FFog.9 mph100%30.21 "Hg1 mi
12:50 AM36 °FFog.7 mph100%30.24 "Hg1 mi
12:20 AM36 °FFog.8 mph100%30.24 "Hg1 mi
11:50 PM
Jan 25
36 °FFog.7 mph100%30.24 "Hg1 mi
11:20 PM36 °FFog.6 mph100%30.27 "Hg1 mi
10:20 PM36 °FFog.5 mph100%30.27 "Hg1 mi
9:50 PM37 °FFog.6 mph100%30.27 "Hg1 mi
9:20 PM36 °FFog.6 mph100%30.27 "Hg2 mi
8:50 PM36 °FFog.5 mph100%30.27 "Hg2 mi
8:20 PM37 °FFog.5 mph100%30.27 "Hg2 mi
7:50 PM37 °FFog.6 mph100%30.27 "Hg2 mi
7:20 PM37 °FFog.6 mph100%30.27 "Hg2 mi
Weather by CustomWeather, © 2014

See weather overviewHow to use our weather pages